CW8198 Weather Reports


time (UTC)temp
C
wind
direction
speed
KPH
gust
KPH
rain 1hr
cm
rain 24hr
cm
rain mn
cm
humidity
%
barometer
mb
20260502220325 20 221 16.1 22.5 0.00 0.00 0.00 28 1016.3
20260502215823 20 232 8.0 20.9 0.00 0.00 0.00 31 1016.3
20260502215321 20 226 8.0 20.9 0.00 0.00 0.00 29 1016.3
20260502214819 20 265 9.7 20.9 0.00 0.00 0.00 30 1016.5
20260502214319 20 259 11.3 20.9 0.00 0.00 0.00 29 1016.7
20260502213818 20 225 3.2 16.1 0.00 0.00 0.00 31 1016.6
20260502213319 20 238 8.0 16.1 0.00 0.00 0.00 30 1016.8
20260502212818 20 268 11.3 17.7 0.00 0.00 0.00 31 1016.9
20260502211315 19 218 4.8 16.1 0.00 0.00 0.00 30 1017.0
20260502210815 19 201 6.4 24.1 0.00 0.00 0.00 28 1017.1
20260502210313 19 250 9.7 24.1 0.00 0.00 0.00 30 1017.2
20260502205814 20 216 14.5 22.5 0.00 0.00 0.00 31 1017.2
20260502205314 20 225 6.4 14.5 0.00 0.00 0.00 31 1017.4
20260502204813 20 245 1.6 12.9 0.00 0.00 0.00 32 1017.5
20260502204313 19 350 6.4 22.5 0.00 0.00 0.00 32 1017.5
20260502203813 19 229 9.7 22.5 0.00 0.00 0.00 32 1017.6
20260502203314 19 219 9.7 22.5 0.00 0.00 0.00 31 1017.7
20260502202811 19 254 11.3 22.5 0.00 0.00 0.00 33 1017.8
20260502202312 18 275 9.7 20.9 0.00 0.00 0.00 31 1017.8
20260502201811 18 137 3.2 16.1 0.00 0.00 0.00 31 1017.9
20260502200810 20 221 8.0 17.7 0.00 0.00 0.00 31 1018.1
20260502200309 20 244 8.0 12.9 0.00 0.00 0.00 32 1018.1
20260502195810 20 265 4.8 11.3 0.00 0.00 0.00 33 1018.2
20260502194809 19 279 6.4 16.1 0.00 0.00 0.00 31 1018.5
20260502194309 19 284 6.4 16.1 0.00 0.00 0.00 40 1018.5
20260502193807 18 250 4.8 16.1 0.00 0.00 0.00 38 1018.6
20260502193308 18 279 6.4 16.1 0.00 0.00 0.00 34 1018.8
20260502192807 18 221 8.0 17.7 0.00 0.00 0.00 31 1018.9
20260502191808 18 250 11.3 20.9 0.00 0.00 0.00 37 1018.9
20260502191305 18 243 11.3 20.9 0.00 0.00 0.00 34 1019.0
20260502190807 18 230 8.0 16.1 0.00 0.00 0.00 35 1019.1
20260502190305 18 275 6.4 16.1 0.00 0.00 0.00 38 1019.2
20260502185305 18 291 8.0 20.9 0.00 0.00 0.00 41 1019.2
20260502184804 18 254 6.4 22.5 0.00 0.00 0.00 36 1019.3
20260502183803 17 9 6.4 22.5 0.00 0.00 0.00 37 1019.8
20260502183304 17 238 8.0 22.5 0.00 0.00 0.00 35 1019.8
20260502182803 18 236 4.8 17.7 0.00 0.00 0.00 35 1020.0
20260502182304 18 272 8.0 24.1 0.00 0.00 0.00 40 1020.0
20260502181802 18 265 11.3 24.1 0.00 0.00 0.00 39 1020.1
20260502181301 17 286 4.8 17.7 0.00 0.00 0.00 40 1020.0
20260502180801 17 243 3.2 12.9 0.00 0.00 0.00 39 1020.2
20260502180300 17 178 4.8 14.5 0.00 0.00 0.00 37 1020.2
20260502170252 15 257 4.8 17.7 0.00 0.00 0.00 44 1020.9
20260502164251 16 257 8.0 19.3 0.00 0.00 0.00 39 1020.9
20260502163750 16 250 6.4 19.3 0.00 0.00 0.00 41 1021.1
20260502163250 16 236 3.2 17.7 0.00 0.00 0.00 42 1021.0
20260502162750 15 279 4.8 12.9 0.00 0.00 0.00 42 1021.1
20260502162249 15 245 6.4 19.3 0.00 0.00 0.00 41 1021.2
20260502161749 15 291 4.8 19.3 0.00 0.00 0.00 41 1021.2
20260502161249 15 234 8.0 20.9 0.00 0.00 0.00 38 1021.3
20260502160751 15 250 8.0 20.9 0.00 0.00 0.00 44 1021.4
20260502152246 12 294 4.8 16.1 0.00 0.00 0.00 50 1021.6
20260502151746 12 291 4.8 11.3 0.00 0.00 0.00 49 1021.6
20260502151246 12 225 1.6 11.3 0.00 0.00 0.00 52 1021.6
20260502150246 11 208 3.2 9.7 0.00 0.00 0.00 55 1021.5
20260502130727 0 325 1.6 3.2 0.00 0.00 0.00 90 1021.8
20260502130227 0 51 1.6 3.2 0.00 0.00 0.00 90 1021.8
20260502123724 -1 238 0.0 1.6 0.00 0.00 0.00 89 1021.7
20260502123226 -1 238 0.0 1.6 0.00 0.00 0.00 89 1021.6
20260502122724 -1 265 0.0 1.6 0.00 0.00 0.00 89 1021.5
20260502122219 -1 51 0.0 1.6 0.00 0.00 0.00 89 1021.7
20260502121720 -1 9 0.0 1.6 0.00 0.00 0.00 89 1021.6
20260502121219 -1 153 0.0 1.6 0.00 0.00 0.00 89 1021.6
20260502120718 -1 126 1.6 1.6 0.00 0.00 0.00 89 1021.6
20260502120218 -1 51 0.0 1.6 0.00 0.00 0.00 89 1021.6
20260502115717 -1 265 0.0 1.6 0.00 0.00 0.00 89 1021.5
20260502115217 -1 111 0.0 1.6 0.00 0.00 0.00 89 1021.5
20260502114717 -1 205 0.0 3.2 0.00 0.00 0.00 88 1021.5
20260502114216 -1 215 1.6 3.2 0.00 0.00 0.00 88 1021.5
20260502113716 -1 137 0.0 1.6 0.00 0.00 0.00 88 1021.4
20260502113216 -1 9 0.0 1.6 0.00 0.00 0.00 88 1021.4
20260502112715 -1 325 0.0 1.6 0.00 0.00 0.00 88 1021.5
20260502111215 -1 34 0.0 1.6 0.00 0.00 0.00 88 1021.4
20260502110214 -1 51 0.0 1.6 0.00 0.00 0.00 88 1021.4
20260502105714 -1 137 0.0 1.6 0.00 0.00 0.00 88 1021.4
20260502104709 -1 221 0.0 1.6 0.00 0.00 0.00 88 1021.4
20260502104207 -1 51 1.6 1.6 0.00 0.00 0.00 87 1021.4
20260502103703 -1 9 1.6 1.6 0.00 0.00 0.00 87 1021.4
20260502103204 -1 51 0.0 1.6 0.00 0.00 0.00 87 1021.4
20260502102203 -1 26 0.0 1.6 0.00 0.00 0.00 87 1021.3
20260502101703 -1 9 0.0 1.6 0.00 0.00 0.00 87 1021.3
20260502100702 -1 325 0.0 1.6 0.00 0.00 0.00 87 1021.3
20260502100202 -1 26 0.0 1.6 0.00 0.00 0.00 87 1021.2
20260502091150 0 93 0.0 1.6 0.00 0.00 0.00 86 1021.2
20260502090643 0 93 0.0 1.6 0.00 0.00 0.00 86 1021.0
20260502090143 0 34 0.0 1.6 0.00 0.00 0.00 86 1021.0
20260502071059 0 309 0.0 1.6 0.00 0.00 0.00 82 1021.2
20260502070559 0 51 0.0 1.6 0.00 0.00 0.00 82 1021.1
20260502070059 0 325 0.0 1.6 0.00 0.00 0.00 82 1021.1
20260502065057 1 9 0.0 1.6 0.00 0.00 0.00 82 1021.0
20260502063557 1 265 0.0 1.6 0.00 0.00 0.00 81 1021.1
20260502063057 1 126 1.6 1.6 0.00 0.00 0.00 81 1021.1
20260502062556 1 137 1.6 1.6 0.00 0.00 0.00 80 1021.1
20260502062056 1 51 0.0 1.6 0.00 0.00 0.00 80 1021.0
20260502061556 1 93 0.0 1.6 0.00 0.00 0.00 79 1021.0
20260502060555 1 137 0.0 3.2 0.00 0.00 0.00 79 1020.9
20260502060055 1 51 0.0 3.2 0.00 0.00 0.00 79 1020.9
20260502054556 2 309 0.0 1.6 0.00 0.00 0.00 78 1020.8
20260502054054 2 137 0.0 1.6 0.00 0.00 0.00 78 1020.8
20260502053555 2 162 0.0 1.6 0.00 0.00 0.00 78 1020.7
20260502053049 2 137 0.0 1.6 0.00 0.00 0.00 77 1020.7
20260502052544 2 309 0.0 1.6 0.00 0.00 0.00 77 1020.8
20260502052043 2 51 1.6 1.6 0.00 0.00 0.00 76 1020.8
20260502051544 2 162 0.0 1.6 0.00 0.00 0.00 76 1020.7
20260502050543 2 137 0.0 1.6 0.00 0.00 0.00 75 1020.6
20260502050043 2 137 0.0 1.6 0.00 0.00 0.00 75 1020.6
20260502045042 3 9 0.0 1.6 0.00 0.00 0.00 74 1020.5
20260502044541 3 137 0.0 1.6 0.00 0.00 0.00 73 1020.6
20260502043536 3 153 0.0 1.6 0.00 0.00 0.00 71 1020.5
20260502043036 3 153 0.0 1.6 0.00 0.00 0.00 70 1020.4
20260502042536 3 162 1.6 1.6 0.00 0.00 0.00 70 1020.3
20260502041536 3 162 0.0 1.6 0.00 0.00 0.00 68 1020.4
20260502041035 4 137 0.0 1.6 0.00 0.00 0.00 67 1020.4
20260502040030 4 93 0.0 1.6 0.00 0.00 0.00 67 1020.4
20260502035519 5 137 1.6 1.6 0.00 0.00 0.00 66 1020.4
20260502035019 5 265 0.0 3.2 0.00 0.00 0.00 66 1020.3
20260502034513 5 265 0.0 3.2 0.00 0.00 0.00 65 1020.4
20260502034014 5 287 0.0 3.2 0.00 0.00 0.00 64 1020.3
20260502033513 5 291 0.0 1.6 0.00 0.00 0.00 63 1020.3
20260502033013 6 325 0.0 3.2 0.00 0.00 0.00 63 1020.4
20260502032513 6 309 1.6 3.2 0.00 0.00 0.00 62 1020.3
20260502032012 6 51 0.0 3.2 0.00 0.00 0.00 60 1020.3
20260502031512 7 291 0.0 1.6 0.00 0.00 0.00 57 1020.2
20260502031001 7 205 0.0 1.6 0.00 0.00 0.00 52 1020.2
20260502030501 7 212 1.6 1.6 0.00 0.00 0.00 50 1020.2
20260502030002 8 238 0.0 1.6 0.00 0.00 0.00 48 1020.1
20260502025501 8 51 0.0 3.2 0.00 0.00 0.00 47 1020.1
20260502025001 8 119 1.6 3.2 0.00 0.00 0.00 46 1020.0
20260502024451 8 342 1.6 3.2 0.00 0.00 0.00 44 1019.9
20260502022949 8 338 1.6 3.2 0.00 0.00 0.00 44 1019.8
20260502022450 8 19 1.6 4.8 0.00 0.00 0.00 44 1019.7
20260502021949 8 44 3.2 4.8 0.00 0.00 0.00 44 1019.7
20260502021449 9 334 1.6 4.8 0.00 0.00 0.00 44 1019.6
20260502020950 9 9 1.6 4.8 0.00 0.00 0.00 44 1019.6
20260502020448 9 30 3.2 4.8 0.00 0.00 0.00 43 1019.6
20260502014447 10 325 3.2 6.4 0.00 0.00 0.00 42 1019.3
20260502013947 10 26 3.2 6.4 0.00 0.00 0.00 42 1019.2
20260502012946 10 330 3.2 11.3 0.00 0.00 0.00 42 1019.1
20260502011946 10 19 3.2 9.7 0.00 0.00 0.00 43 1019.0
20260502011445 10 43 3.2 9.7 0.00 0.00 0.00 44 1018.9
20260502010445 10 15 4.8 16.1 0.00 0.00 0.00 43 1018.8
20260502005445 11 347 6.4 19.3 0.00 0.00 0.00 43 1018.8
20260502004943 11 347 8.0 19.3 0.00 0.00 0.00 41 1018.8
20260502004443 11 329 8.0 17.7 0.00 0.00 0.00 41 1018.7
20260502003942 11 9 9.7 19.3 0.00 0.00 0.00 42 1018.6
20260502003442 11 24 8.0 19.3 0.00 0.00 0.00 41 1018.5
20260502002942 12 19 6.4 19.3 0.00 0.00 0.00 40 1018.5
20260502002443 12 344 11.3 19.3 0.00 0.00 0.00 39 1018.5
20260502001942 12 309 4.8 19.3 0.00 0.00 0.00 40 1018.4
20260502001442 12 324 8.0 22.5 0.00 0.00 0.00 38 1018.4
20260502000941 12 341 9.7 25.7 0.00 0.00 0.00 38 1018.3
20260502000441 13 310 9.7 25.7 0.00 0.00 0.00 38 1018.5
20260501235942 13 9 14.5 25.7 0.00 0.00 0.00 37 1018.4
20260501234940 13 316 6.4 20.9 0.00 0.00 0.00 38 1018.5
20260501233439 13 305 12.9 25.7 0.00 0.00 0.00 35 1018.4
20260501232440 14 9 8.0 27.4 0.00 0.00 0.00 37 1018.4
20260501231939 14 335 12.9 27.4 0.00 0.00 0.00 36 1018.4
20260501231438 14 15 11.3 27.4 0.00 0.00 0.00 37 1018.3
20260501230937 15 350 9.7 25.7 0.00 0.00 0.00 37 1018.4
20260501230437 15 334 9.7 22.5 0.00 0.00 0.00 37 1018.3
20260501225936 15 344 12.9 22.5 0.00 0.00 0.00 33 1018.2
20260501225436 15 340 6.4 24.1 0.00 0.00 0.00 38 1018.4
20260501224935 15 303 8.0 25.7 0.00 0.00 0.00 36 1018.3
20260501222928 15 324 8.0 25.7 0.00 0.00 0.00 36 1018.2
20260501222429 15 332 14.5 25.7 0.00 0.00 0.00 36 1018.3
20260501221927 15 325 8.0 20.9 0.00 0.00 0.00 37 1018.1
20260501221427 15 348 6.4 20.9 0.00 0.00 0.00 36 1018.1
20260501220927 15 11 9.7 20.9 0.00 0.00 0.00 36 1018.1